Home   Weather   Santa Ana   Past weeks

Flag for El Salvador Past Weather in Santa Ana, El Salvador — Yesterday and Last 2 Weeks

Now
73 °F

Clear.


Feels Like: 75 °F
Forecast: 63 / 85 °F
Wind: 3 mph from Southeast

Location: San Salvador / Ilopango

Current Time: Feb 21, 2017 at 7:45:39 pm

Latest Report: Feb 21, 2017 at 6:50 pm


Visibility: 10 mi

Pressure: 29.95 "Hg (27.79 "Hg at 650m altitude)

Humidity: 74%

Dew Point: 64 °F

Location of Santa AnaLocation

Past Weather in Santa Ana — Graph

°F

Santa Ana Temperature Yesterday

Maximum temperature yesterday: 86 °F (at 12:50 pm)
Minimum temperature yesterday: 68 °F (at 6:50 am)
Average temperature yesterday: 77 °F

High & Low Weather Summary for the Past Weeks

 TemperatureHumidityPressure
High93 °F (Feb 10, 2:50 pm)94% (Feb 8, 5:50 am)30.12 "Hg (Feb 8, 5:50 am)
Low63 °F (Feb 15, 6:50 am)21% (Feb 13, 1:50 pm)29.86 "Hg (Feb 7, 3:50 pm)
Average78 °F64%30.01 "Hg
* Reported Feb 6 5:50 pm — Feb 21 5:50 pm, Santa Ana, Weather by CustomWeather, © 2017

Note: Actual official high and low records may vary slightly from our data, if they occured in-between our weather recording intervals... More about our weather records

Advertising

Santa Ana Weather History for the Previous 24 Hours

Scroll right to see more
 ConditionsComfort  
Time TempWeatherWind HumidityBarometerVisibility
5:50 pm
Tue, Feb 21
77 °FSunny.7 mph65%29.92 "Hg10 mi
4:50 pm81 °FSunny.12 mph58%29.95 "Hg10 mi
3:50 pm82 °FSunny.9 mph55%29.95 "Hg10 mi
2:50 pm86 °FPassing clouds.8 mph46%29.95 "HgN/A
1:50 pm86 °FPassing clouds.3 mph46%29.98 "HgN/A
12:50 pm86 °FPassing clouds.6 mph43%30.01 "HgN/A
11:50 am82 °FPassing clouds.8 mph48%30.04 "HgN/A
10:50 am82 °FPassing clouds.8 mph48%30.07 "HgN/A
9:50 am81 °FHaze.5 mph51%30.07 "HgN/A
8:50 am77 °FSunny.2 mph61%30.07 "Hg5 mi
7:50 am72 °FSunny.No wind88%30.04 "Hg4 mi
6:50 am66 °FFog.No wind94%30.04 "Hg2 mi
5:50 am66 °FFog.3 mph94%30.01 "Hg2 mi
11:50 pm
Mon, Feb 20
70 °FFog.No wind88%30.04 "Hg3 mi
10:50 pm70 °FFog.No wind94%30.04 "Hg3 mi
9:50 pm70 °FFog.5 mph94%30.04 "Hg3 mi
8:50 pm72 °FFog.3 mph88%30.04 "Hg2 mi
7:50 pm72 °FClear.3 mph88%30.01 "Hg2 mi
Weather by CustomWeather, © 2017

See weather overviewHow to use our weather pages